,,,PA_Meas_PMT16A,,PR_Meas_QMR101_102,,RH_Meas_QMH101,,SR_Meas_QMS101,,TA_Meas_QMH101,,GenWind,,GenWind,
date,time,status,PA,status,PR,status,RH,status,SR,status,TA,status,DirAvg,status,SpdAvg,
2009-04-20, 00:00:04,VALID,1002.91,VALID,0,VALID,95.689,VALID,0,VALID,23.4098,VALID,351,VALID,0,
2009-04-20, 00:01:04,VALID,1002.91,VALID,0,VALID,95.7119,VALID,0,VALID,23.3904,VALID,351,VALID,0,
2009-04-20, 00:02:04,VALID,1002.9,VALID,0,VALID,95.7119,VALID,0.100563,VALID,23.4098,VALID,351,VALID,0.409766,
2009-04-20, 00:03:04,VALID,1002.9,VALID,0,VALID,95.7119,VALID,0,VALID,23.4116,VALID,353,VALID,0.662109,
2009-04-20, 00:04:04,VALID,1002.9,VALID,0,VALID,95.7119,VALID,0,VALID,23.4293,VALID,353,VALID,0.673047,
2009-04-20, 00:05:04,VALID,1002.87,VALID,0,VALID,95.7119,VALID,0,VALID,23.4487,VALID,355,VALID,0.383203,
2009-04-20, 00:06:04,VALID,1002.86,VALID,0,VALID,95.6967,VALID,0,VALID,23.5284,VALID,355,VALID,0.651172,
2009-04-20, 00:07:04,VALID,1002.88,VALID,0,VALID,95.689,VALID,0,VALID,23.5266,VALID,356,VALID,0.409375,
2009-04-20, 00:08:04,VALID,1002.87,VALID,0,VALID,95.689,VALID,0.100563,VALID,23.5053,VALID,357,VALID,0.471875,
2009-04-20, 00:09:04,VALID,1002.9,VALID,0,VALID,95.6967,VALID,0.100563,VALID,23.5655,VALID,350,VALID,0.549609,
2009-04-20, 00:10:04,VALID,1002.86,VALID,0,VALID,95.6967,VALID,0,VALID,23.5673,VALID,354,VALID,0.650391,
2009-04-20, 00:11:04,VALID,1002.88,VALID,0,VALID,95.6967,VALID,0,VALID,23.5655,VALID,355,VALID,0.360938,
2009-04-20, 00:12:04,VALID,1002.84,VALID,0,VALID,95.689,VALID,0,VALID,23.546,VALID,3,VALID,0.647266,
2009-04-20, 00:13:04,VALID,1002.84,VALID,0,VALID,95.7119,VALID,0,VALID,23.5673,VALID,1,VALID,0.681641,
2009-04-20, 00:14:04,VALID,1002.85,VALID,0,VALID,95.7043,VALID,0,VALID,23.546,VALID,352,VALID,0.784766,
2009-04-20, 00:15:04,VALID,1002.86,VALID,0,VALID,95.7043,VALID,0,VALID,23.5248,VALID,3,VALID,0.707031,
2009-04-20, 00:16:04,VALID,1002.85,VALID,0,VALID,95.7119,VALID,0,VALID,23.546,VALID,351,VALID,0.521094,
2009-04-20, 00:17:04,VALID,1002.82,VALID,0,VALID,95.7043,VALID,0,VALID,23.5478,VALID,351,VALID,0.357031,
2009-04-20, 00:18:04,VALID,1002.82,VALID,0,VALID,95.6814,VALID,0,VALID,23.5071,VALID,351,VALID,0.28125,
2009-04-20, 00:19:04,VALID,1002.79,VALID,0,VALID,95.6967,VALID,0,VALID,23.5071,VALID,351,VALID,0.315234,
2009-04-20, 00:20:04,VALID,1002.82,VALID,0,VALID,95.7043,VALID,0,VALID,23.5071,VALID,351,VALID,0.332031,
2009-04-20, 00:21:04,VALID,1002.79,VALID,0,VALID,95.7272,VALID,0.100563,VALID,23.4682,VALID,351,VALID,0.384375,
2009-04-20, 00:22:04,VALID,1002.77,VALID,0,VALID,95.7119,VALID,0.100563,VALID,23.4682,VALID,351,VALID,0.523438,
2009-04-20, 00:23:04,VALID,1002.74,VALID,0,VALID,95.7196,VALID,0,VALID,23.4487,VALID,351,VALID,0.425,
2009-04-20, 00:24:04,VALID,1002.75,VALID,0,VALID,95.7043,VALID,0,VALID,23.47,VALID,351,VALID,0.406641,
2009-04-20, 00:25:04,VALID,1002.73,VALID,0,VALID,95.7119,VALID,0,VALID,23.4293,VALID,351,VALID,0.353906,
2009-04-20, 00:26:04,VALID,1002.7,VALID,0,VALID,95.7119,VALID,0,VALID,23.4311,VALID,351,VALID,0.321094,
2009-04-20, 00:27:04,VALID,1002.68,VALID,0,VALID,95.7119,VALID,0,VALID,23.4311,VALID,351,VALID,0.279687,
2009-04-20, 00:28:04,VALID,1002.64,VALID,0,VALID,95.7119,VALID,0,VALID,23.4116,VALID,351,VALID,0.386328,
2009-04-20, 00:29:04,VALID,1002.6,VALID,0,VALID,95.7043,VALID,0,VALID,23.4116,VALID,351,VALID,0.419141,
2009-04-20, 00:30:04,VALID,1002.62,VALID,0,VALID,95.7119,VALID,0,VALID,23.4116,VALID,351,VALID,0.250391,
2009-04-20, 00:31:04,VALID,1002.6,VALID,0,VALID,95.7119,VALID,0,VALID,23.4311,VALID,351,VALID,0.389453,
2009-04-20, 00:32:04,VALID,1002.62,VALID,0,VALID,95.7119,VALID,0,VALID,23.4116,VALID,351,VALID,0.380078,
2009-04-20, 00:33:04,VALID,1002.6,VALID,0,VALID,95.7272,VALID,0,VALID,23.4328,VALID,351,VALID,0.296875,
2009-04-20, 00:34:04,VALID,1002.6,VALID,0,VALID,95.7196,VALID,0,VALID,23.4116,VALID,351,VALID,0,
2009-04-20, 00:35:04,VALID,1002.53,VALID,0,VALID,95.7119,VALID,0,VALID,23.4116,VALID,351,VALID,0,
2009-04-20, 00:36:04,VALID,1002.49,VALID,0,VALID,95.7272,VALID,0,VALID,23.4311,VALID,351,VALID,0,
2009-04-20, 00:37:04,VALID,1002.51,VALID,0,VALID,95.7119,VALID,0,VALID,23.4116,VALID,351,VALID,0,
2009-04-20, 00:38:04,VALID,1002.49,VALID,0,VALID,95.7196,VALID,0,VALID,23.4116,VALID,351,VALID,0,
2009-04-20, 00:39:04,VALID,1002.48,VALID,0,VALID,95.7196,VALID,0,VALID,23.4311,VALID,351,VALID,0,
2009-04-20, 00:40:04,VALID,1002.46,VALID,0,VALID,95.7119,VALID,0,VALID,23.4116,VALID,351,VALID,0,
2009-04-20, 00:41:04,VALID,1002.45,VALID,0,VALID,95.7196,VALID,0,VALID,23.4311,VALID,351,VALID,0,
2009-04-20, 00:42:04,VALID,1002.45,VALID,0,VALID,95.7196,VALID,0,VALID,23.4311,VALID,351,VALID,0,
2009-04-20, 00:43:04,VALID,1002.42,VALID,0,VALID,95.7043,VALID,0,VALID,23.4311,VALID,351,VALID,0,
2009-04-20, 00:44:04,VALID,1002.39,VALID,0,VALID,95.7272,VALID,0,VALID,23.4505,VALID,351,VALID,0,
2009-04-20, 00:45:04,VALID,1002.38,VALID,0,VALID,95.7119,VALID,0,VALID,23.4505,VALID,351,VALID,0,
2009-04-20, 00:46:04,VALID,1002.34,VALID,0,VALID,95.7119,VALID,0,VALID,23.4505,VALID,351,VALID,0,
2009-04-20, 00:47:04,VALID,1002.35,VALID,0,VALID,95.7119,VALID,0,VALID,23.4311,VALID,351,VALID,0,
2009-04-20, 00:48:04,VALID,1002.33,VALID,0,VALID,95.7043,VALID,0,VALID,23.3904,VALID,351,VALID,0,
2009-04-20, 00:49:04,VALID,1002.3,VALID,0,VALID,95.7196,VALID,0,VALID,23.4116,VALID,351,VALID,0,
2009-04-20, 00:50:04,VALID,1002.28,VALID,0,VALID,95.7196,VALID,0,VALID,23.4116,VALID,351,VALID,0,
2009-04-20, 00:51:04,VALID,1002.26,VALID,0,VALID,95.7196,VALID,0,VALID,23.4505,VALID,351,VALID,0,
2009-04-20, 00:52:04,VALID,1002.24,VALID,0,VALID,95.7272,VALID,0,VALID,23.4505,VALID,351,VALID,0,
2009-04-20, 00:53:04,VALID,1002.25,VALID,0,VALID,95.7119,VALID,0,VALID,23.4311,VALID,351,VALID,0,
2009-04-20, 00:54:04,VALID,1002.19,VALID,0,VALID,95.7196,VALID,0,VALID,23.4116,VALID,351,VALID,0,
2009-04-20, 00:55:04,VALID,1002.18,VALID,0,VALID,95.7196,VALID,0,VALID,23.4311,VALID,351,VALID,0,
2009-04-20, 00:56:04,VALID,1002.15,VALID,0,VALID,95.7348,VALID,0,VALID,23.4293,VALID,351,VALID,0,
2009-04-20, 00:57:04,VALID,1002.15,VALID,0,VALID,95.6967,VALID,0,VALID,23.4682,VALID,351,VALID,0,
2009-04-20, 00:58:04,VALID,1002.15,VALID,0,VALID,95.7272,VALID,0,VALID,23.4293,VALID,351,VALID,0,
2009-04-20, 00:59:04,VALID,1002.12,VALID,0,VALID,95.7196,VALID,0,VALID,23.4505,VALID,351,VALID,0,
2009-04-20, 01:00:04,VALID,1002.11,VALID,0,VALID,95.7043,VALID,0,VALID,23.4487,VALID,351,VALID,0,
2009-04-20, 01:01:04,VALID,1002.15,VALID,0,VALID,95.7196,VALID,0,VALID,23.4487,VALID,351,VALID,0,
2009-04-20, 01:02:04,VALID,1002.1,VALID,0,VALID,95.7119,VALID,0.100563,VALID,23.4293,VALID,351,VALID,0,
2009-04-20, 01:03:04,VALID,1002.12,VALID,0,VALID,95.7119,VALID,0,VALID,23.4487,VALID,351,VALID,0,
2009-04-20, 01:04:04,VALID,1002.09,VALID,0,VALID,95.7196,VALID,0,VALID,23.4682,VALID,351,VALID,0,
2009-04-20, 01:05:04,VALID,1002.07,VALID,0,VALID,95.7196,VALID,0,VALID,23.47,VALID,351,VALID,0,
2009-04-20, 01:06:04,VALID,1002.08,VALID,0,VALID,95.7348,VALID,0,VALID,23.4487,VALID,351,VALID,0,
2009-04-20, 01:07:04,VALID,1002.06,VALID,0,VALID,95.7272,VALID,0.100563,VALID,23.4487,VALID,351,VALID,0,
2009-04-20, 01:08:04,VALID,1002.05,VALID,0,VALID,95.7272,VALID,0,VALID,23.4682,VALID,351,VALID,0,
2009-04-20, 01:09:04,VALID,1002.02,VALID,0,VALID,95.7272,VALID,0,VALID,23.47,VALID,351,VALID,0,
2009-04-20, 01:10:04,VALID,1002.01,VALID,0,VALID,95.7043,VALID,0,VALID,23.4877,VALID,351,VALID,0,
2009-04-20, 01:11:04,VALID,1002.02,VALID,0,VALID,95.7196,VALID,0,VALID,23.5302,VALID,351,VALID,0,
2009-04-20, 01:12:04,VALID,1001.97,VALID,0,VALID,95.7119,VALID,0,VALID,23.5885,VALID,351,VALID,0,
2009-04-20, 01:13:04,VALID,1001.97,VALID,0,VALID,95.7043,VALID,0,VALID,23.5496,VALID,351,VALID,0,
2009-04-20, 01:14:04,VALID,1001.97,VALID,0,VALID,95.7272,VALID,0,VALID,23.4894,VALID,351,VALID,0,
2009-04-20, 01:15:04,VALID,1001.97,VALID,0,VALID,95.7348,VALID,0,VALID,23.4718,VALID,351,VALID,0,
2009-04-20, 01:16:04,VALID,1001.96,VALID,0,VALID,95.7196,VALID,0,VALID,23.4505,VALID,351,VALID,0,
2009-04-20, 01:17:04,VALID,1001.97,VALID,0,VALID,95.7043,VALID,0,VALID,23.4311,VALID,351,VALID,0,
2009-04-20, 01:18:04,VALID,1001.99,VALID,0,VALID,95.7196,VALID,0,VALID,23.4311,VALID,351,VALID,0,
2009-04-20, 01:19:04,VALID,1001.96,VALID,0,VALID,95.7348,VALID,0,VALID,23.3921,VALID,351,VALID,0,
2009-04-20, 01:20:04,VALID,1001.97,VALID,0,VALID,95.7272,VALID,0,VALID,23.3727,VALID,351,VALID,0,
2009-04-20, 01:21:04,VALID,1001.93,VALID,0,VALID,95.7196,VALID,0,VALID,23.3939,VALID,352,VALID,0.583594,
2009-04-20, 01:22:04,VALID,1001.97,VALID,0,VALID,95.7272,VALID,0,VALID,23.3921,VALID,352,VALID,0.757813,
2009-04-20, 01:23:04,VALID,1001.97,VALID,0,VALID,95.7348,VALID,0,VALID,23.4311,VALID,354,VALID,0.716797,
2009-04-20, 01:24:04,VALID,1001.97,VALID,0,VALID,95.7272,VALID,0,VALID,23.4718,VALID,346,VALID,0.825391,
2009-04-20, 01:25:04,VALID,1001.96,VALID,0,VALID,95.7272,VALID,0,VALID,23.4523,VALID,357,VALID,0.840625,
2009-04-20, 01:26:04,VALID,1001.96,VALID,0,VALID,95.7119,VALID,0,VALID,23.4505,VALID,360,VALID,1.04375,
2009-04-20, 01:27:04,VALID,1001.95,VALID,0,VALID,95.7424,VALID,0,VALID,23.4523,VALID,357,VALID,0.870313,
2009-04-20, 01:28:04,VALID,1001.93,VALID,0,VALID,95.7348,VALID,0,VALID,23.4718,VALID,348,VALID,0.780078,
2009-04-20, 01:29:04,VALID,1001.96,VALID,0,VALID,95.7272,VALID,0,VALID,23.4718,VALID,5,VALID,0.501953,
2009-04-20, 01:30:04,VALID,1001.96,VALID,0,VALID,95.7272,VALID,0,VALID,23.4505,VALID,342,VALID,0.276563,
2009-04-20, 01:31:04,VALID,1001.96,VALID,0,VALID,95.7119,VALID,0,VALID,23.4718,VALID,359,VALID,0.439453,
2009-04-20, 01:32:04,VALID,1001.96,VALID,0,VALID,95.7272,VALID,0,VALID,23.4505,VALID,360,VALID,0.433984,
2009-04-20, 01:33:04,VALID,1001.98,VALID,0,VALID,95.7348,VALID,0,VALID,23.4718,VALID,2,VALID,0.533984,
2009-04-20, 01:34:04,VALID,1001.97,VALID,0,VALID,95.7348,VALID,0,VALID,23.4505,VALID,2,VALID,0.0546875,
2009-04-20, 01:35:04,VALID,1001.99,VALID,0,VALID,95.7424,VALID,0,VALID,23.4505,VALID,2,VALID,0,
2009-04-20, 01:36:04,VALID,1001.99,VALID,0,VALID,95.7348,VALID,0,VALID,23.4311,VALID,360,VALID,0.457422,
2009-04-20, 01:37:04,VALID,1002.02,VALID,0,VALID,95.7272,VALID,0,VALID,23.4311,VALID,360,VALID,0.248047,
2009-04-20, 01:38:04,VALID,1002,VALID,0,VALID,95.7119,VALID,0,VALID,23.4523,VALID,360,VALID,0,
2009-04-20, 01:39:04,VALID,1002.02,VALID,0,VALID,95.7348,VALID,0,VALID,23.4116,VALID,360,VALID,0.00195313,
2009-04-20, 01:40:04,VALID,1002.02,VALID,0,VALID,95.7196,VALID,0,VALID,23.4134,VALID,360,VALID,0.141406,
2009-04-20, 01:41:04,VALID,1001.99,VALID,0,VALID,95.7348,VALID,0.100563,VALID,23.4098,VALID,360,VALID,0.16875,
2009-04-20, 01:42:04,VALID,1002.01,VALID,0,VALID,95.7272,VALID,0,VALID,23.3904,VALID,359,VALID,0.564453,
2009-04-20, 01:43:04,VALID,1002,VALID,0,VALID,95.7196,VALID,0,VALID,23.3691,VALID,343,VALID,0.41875,
2009-04-20, 01:44:04,VALID,1002,VALID,0,VALID,95.7272,VALID,0.100563,VALID,23.3691,VALID,343,VALID,0.233984,
2009-04-20, 01:45:04,VALID,1001.98,VALID,0,VALID,95.7272,VALID,0.100563,VALID,23.4098,VALID,324,VALID,0.289844,
2009-04-20, 01:46:04,VALID,1002,VALID,0,VALID,95.7348,VALID,0,VALID,23.4311,VALID,324,VALID,0.105859,
2009-04-20, 01:47:04,VALID,1001.99,VALID,0,VALID,95.7119,VALID,0.100563,VALID,23.4311,VALID,324,VALID,0.078125,
2009-04-20, 01:48:04,VALID,1001.97,VALID,0,VALID,95.7196,VALID,0,VALID,23.4098,VALID,327,VALID,0.240234,
2009-04-20, 01:49:04,VALID,1001.95,VALID,0,VALID,95.7196,VALID,0,VALID,23.4098,VALID,330,VALID,0.475391,
2009-04-20, 01:50:04,VALID,1001.95,VALID,0,VALID,95.7119,VALID,0.100563,VALID,23.4293,VALID,296,VALID,0.537891,
2009-04-20, 01:51:04,VALID,1001.94,VALID,0,VALID,95.7119,VALID,0,VALID,23.4487,VALID,286,VALID,0,
2009-04-20, 01:52:04,VALID,1001.94,VALID,0,VALID,95.7196,VALID,0.100563,VALID,23.4487,VALID,297,VALID,0.135547,
2009-04-20, 01:53:04,VALID,1001.96,VALID,0,VALID,95.7043,VALID,0,VALID,23.4487,VALID,313,VALID,0.423047,
2009-04-20, 01:54:04,VALID,1001.97,VALID,0,VALID,95.7043,VALID,0.100563,VALID,23.4682,VALID,298,VALID,0.266797,
2009-04-20, 01:55:04,VALID,1001.93,VALID,0,VALID,95.7043,VALID,0,VALID,23.4682,VALID,16,VALID,0.257813,
2009-04-20, 01:56:04,VALID,1001.95,VALID,0,VALID,95.7043,VALID,0,VALID,23.5071,VALID,3,VALID,0.694922,
2009-04-20, 01:57:04,VALID,1001.94,VALID,0,VALID,95.7119,VALID,0,VALID,23.5266,VALID,358,VALID,0.704297,
2009-04-20, 01:58:04,VALID,1001.9,VALID,0,VALID,95.7119,VALID,0,VALID,23.5655,VALID,335,VALID,0.271484,
2009-04-20, 01:59:04,VALID,1001.92,VALID,0,VALID,95.689,VALID,0,VALID,23.6452,VALID,344,VALID,1.27773,
2009-04-20, 02:00:04,VALID,1001.89,VALID,0,VALID,95.6509,VALID,0,VALID,23.6823,VALID,354,VALID,1.28633,
2009-04-20, 02:01:04,VALID,1001.9,VALID,0,VALID,95.6662,VALID,0,VALID,23.7425,VALID,353,VALID,0.539844,
2009-04-20, 02:02:04,VALID,1001.85,VALID,0,VALID,95.6585,VALID,0,VALID,23.7601,VALID,6,VALID,0.837891,
2009-04-20, 02:03:04,VALID,1001.86,VALID,0,VALID,95.6585,VALID,0,VALID,23.7991,VALID,357,VALID,0.591797,
2009-04-20, 02:04:04,VALID,1001.86,VALID,0,VALID,95.6585,VALID,0.100563,VALID,23.8203,VALID,333,VALID,0.479688,
2009-04-20, 02:05:04,VALID,1001.85,VALID,0,VALID,95.6356,VALID,0,VALID,23.8203,VALID,336,VALID,0.414063,
2009-04-20, 02:06:04,VALID,1001.83,VALID,0,VALID,95.6356,VALID,0.100563,VALID,23.7991,VALID,344,VALID,0.690234,
2009-04-20, 02:07:04,VALID,1001.85,VALID,0,VALID,95.628,VALID,0,VALID,23.8185,VALID,344,VALID,0.376563,
2009-04-20, 02:08:04,VALID,1001.8,VALID,0,VALID,95.6204,VALID,0,VALID,23.8009,VALID,344,VALID,0.00117188,
2009-04-20, 02:09:04,VALID,1001.82,VALID,0,VALID,95.628,VALID,0.100563,VALID,23.7796,VALID,346,VALID,0.127734,
2009-04-20, 02:10:04,VALID,1001.83,VALID,0,VALID,95.6128,VALID,0,VALID,23.8027,VALID,353,VALID,0.433203,
2009-04-20, 02:11:04,VALID,1001.82,VALID,0,VALID,95.6128,VALID,0,VALID,23.8203,VALID,352,VALID,0.548828,
2009-04-20, 02:12:04,VALID,1001.78,VALID,0,VALID,95.5975,VALID,0,VALID,23.8009,VALID,352,VALID,0.292969,
2009-04-20, 02:13:04,VALID,1001.8,VALID,0,VALID,95.628,VALID,0,VALID,23.7796,VALID,352,VALID,0.353125,
2009-04-20, 02:14:04,VALID,1001.79,VALID,0,VALID,95.6204,VALID,0,VALID,23.7814,VALID,351,VALID,0.266016,
2009-04-20, 02:15:04,VALID,1001.79,VALID,0,VALID,95.6051,VALID,0,VALID,23.7619,VALID,349,VALID,0.49375,
2009-04-20, 02:16:05,VALID,1001.77,VALID,0,VALID,95.628,VALID,0,VALID,23.7407,VALID,350,VALID,0.458984,
2009-04-20, 02:17:05,VALID,1001.8,VALID,0,VALID,95.6128,VALID,0,VALID,23.7407,VALID,350,VALID,0.248437,
2009-04-20, 02:18:05,VALID,1001.79,VALID,0,VALID,95.6204,VALID,0,VALID,23.7814,VALID,355,VALID,0.676172,
2009-04-20, 02:19:05,VALID,1001.82,VALID,0,VALID,95.5975,VALID,0,VALID,23.7814,VALID,352,VALID,0.707031,
2009-04-20, 02:20:05,VALID,1001.81,VALID,0,VALID,95.5975,VALID,0,VALID,23.8009,VALID,340,VALID,0.61875,
2009-04-20, 02:21:05,VALID,1001.82,VALID,0,VALID,95.6051,VALID,0,VALID,23.7796,VALID,343,VALID,0.595312,
2009-04-20, 02:22:05,VALID,1001.81,VALID,0,VALID,95.5899,VALID,0,VALID,23.7601,VALID,352,VALID,0.682813,
2009-04-20, 02:23:05,VALID,1001.81,VALID,0,VALID,95.5822,VALID,0,VALID,23.7796,VALID,351,VALID,0.326953,
2009-04-20, 02:24:05,VALID,1001.81,VALID,0,VALID,95.5899,VALID,0.100563,VALID,23.8009,VALID,355,VALID,0.693359,
2009-04-20, 02:25:05,VALID,1001.8,VALID,0,VALID,95.5899,VALID,0,VALID,23.7796,VALID,342,VALID,0.607031,
2009-04-20, 02:26:05,VALID,1001.77,VALID,0,VALID,95.5746,VALID,0,VALID,23.8009,VALID,351,VALID,0.532031,
2009-04-20, 02:27:05,VALID,1001.78,VALID,0,VALID,95.5746,VALID,0,VALID,23.8009,VALID,8,VALID,0.361719,
2009-04-20, 02:28:05,VALID,1001.79,VALID,0,VALID,95.5746,VALID,0,VALID,23.7991,VALID,7,VALID,0.421875,
2009-04-20, 02:29:05,VALID,1001.77,VALID,0,VALID,95.5517,VALID,0,VALID,23.8009,VALID,5,VALID,0.243359,
2009-04-20, 02:30:05,VALID,1001.77,VALID,0,VALID,95.5899,VALID,0,VALID,23.7796,VALID,1,VALID,0.257422,
2009-04-20, 02:31:05,VALID,1001.79,VALID,0,VALID,95.5517,VALID,0,VALID,23.7796,VALID,1,VALID,0,
2009-04-20, 02:32:05,VALID,1001.8,VALID,0,VALID,95.567,VALID,0,VALID,23.8009,VALID,1,VALID,0,
2009-04-20, 02:33:05,VALID,1001.83,VALID,0,VALID,95.5594,VALID,0.100563,VALID,23.7796,VALID,21,VALID,0.441406,
2009-04-20, 02:34:05,VALID,1001.82,VALID,0,VALID,95.5517,VALID,0,VALID,23.7991,VALID,357,VALID,1.01055,
2009-04-20, 02:35:05,VALID,1001.85,VALID,0,VALID,95.5441,VALID,0,VALID,23.8398,VALID,351,VALID,0.26875,
2009-04-20, 02:36:05,VALID,1001.85,VALID,0,VALID,95.5441,VALID,0,VALID,23.838,VALID,348,VALID,0.312109,
2009-04-20, 02:37:05,VALID,1001.89,VALID,0,VALID,95.5365,VALID,0,VALID,23.838,VALID,348,VALID,0.34375,
2009-04-20, 02:38:05,VALID,1001.89,VALID,0,VALID,95.5365,VALID,0,VALID,23.8185,VALID,351,VALID,0.172266,
2009-04-20, 02:39:05,VALID,1001.88,VALID,0,VALID,95.5365,VALID,0,VALID,23.838,VALID,355,VALID,0,
2009-04-20, 02:40:05,VALID,1001.89,VALID,0,VALID,95.5136,VALID,0,VALID,23.8185,VALID,355,VALID,0,
2009-04-20, 02:41:05,VALID,1001.88,VALID,0,VALID,95.5136,VALID,0,VALID,23.8416,VALID,352,VALID,0.319922,
2009-04-20, 02:42:05,VALID,1001.88,VALID,0,VALID,95.4983,VALID,0,VALID,23.8203,VALID,352,VALID,0.294141,
2009-04-20, 02:43:05,VALID,1001.86,VALID,0,VALID,95.506,VALID,0,VALID,23.8203,VALID,350,VALID,0.6125,
2009-04-20, 02:44:05,VALID,1001.86,VALID,0,VALID,95.5136,VALID,0,VALID,23.8009,VALID,350,VALID,0.423438,
2009-04-20, 02:45:05,VALID,1001.84,VALID,0,VALID,95.4983,VALID,0,VALID,23.7814,VALID,350,VALID,0.329688,
2009-04-20, 02:46:05,VALID,1001.83,VALID,0,VALID,95.506,VALID,0,VALID,23.7619,VALID,345,VALID,0.380078,
2009-04-20, 02:47:05,VALID,1001.82,VALID,0,VALID,95.506,VALID,0,VALID,23.7619,VALID,344,VALID,0.442578,
2009-04-20, 02:48:05,VALID,1001.83,VALID,0,VALID,95.506,VALID,0,VALID,23.7619,VALID,344,VALID,0.233203,
2009-04-20, 02:49:05,VALID,1001.8,VALID,0,VALID,95.4907,VALID,0,VALID,23.7425,VALID,344,VALID,0.0257812,
2009-04-20, 02:50:05,VALID,1001.8,VALID,0,VALID,95.4831,VALID,0,VALID,23.7637,VALID,344,VALID,0,
2009-04-20, 02:51:05,VALID,1001.77,VALID,0,VALID,95.506,VALID,0,VALID,23.723,VALID,344,VALID,0,
2009-04-20, 02:52:05,VALID,1001.78,VALID,0,VALID,95.506,VALID,0,VALID,23.7035,VALID,344,VALID,0,
2009-04-20, 02:53:05,VALID,1001.75,VALID,0,VALID,95.5136,VALID,0,VALID,23.6823,VALID,344,VALID,0,
2009-04-20, 02:54:05,VALID,1001.74,VALID,0,VALID,95.4983,VALID,0,VALID,23.7053,VALID,344,VALID,0,
2009-04-20, 02:55:05,VALID,1001.73,VALID,0,VALID,95.4907,VALID,0,VALID,23.6859,VALID,344,VALID,0.589453,
2009-04-20, 02:56:05,VALID,1001.73,VALID,0,VALID,95.4907,VALID,0,VALID,23.6664,VALID,358,VALID,0.553125,
2009-04-20, 02:57:05,VALID,1001.72,VALID,0,VALID,95.5136,VALID,0,VALID,23.6452,VALID,358,VALID,0.460938,
2009-04-20, 02:58:05,VALID,1001.73,VALID,0,VALID,95.506,VALID,0,VALID,23.6257,VALID,358,VALID,0.296875,
2009-04-20, 02:59:05,VALID,1001.73,VALID,0,VALID,95.4907,VALID,0,VALID,23.6452,VALID,357,VALID,0.289063,
2009-04-20, 03:00:05,VALID,1001.76,VALID,0,VALID,95.5136,VALID,0,VALID,23.6257,VALID,357,VALID,0,
2009-04-20, 03:01:05,VALID,1001.73,VALID,0,VALID,95.5212,VALID,0,VALID,23.6469,VALID,357,VALID,0,
2009-04-20, 03:02:05,VALID,1001.72,VALID,0,VALID,95.5365,VALID,0,VALID,23.6257,VALID,357,VALID,0,
2009-04-20, 03:03:05,VALID,1001.72,VALID,0,VALID,95.5136,VALID,0,VALID,23.6257,VALID,357,VALID,0,
2009-04-20, 03:04:05,VALID,1001.74,VALID,0,VALID,95.5136,VALID,0,VALID,23.6257,VALID,357,VALID,0,
2009-04-20, 03:05:05,VALID,1001.74,VALID,0,VALID,95.5212,VALID,0,VALID,23.6257,VALID,357,VALID,0,
2009-04-20, 03:06:05,VALID,1001.76,VALID,0,VALID,95.506,VALID,0,VALID,23.6469,VALID,357,VALID,0,
2009-04-20, 03:07:05,VALID,1001.74,VALID,0,VALID,95.5212,VALID,0,VALID,23.6452,VALID,357,VALID,0,
2009-04-20, 03:08:05,VALID,1001.71,VALID,0,VALID,95.5212,VALID,0,VALID,23.6859,VALID,348,VALID,0.607031,
2009-04-20, 03:09:05,VALID,1001.73,VALID,0,VALID,95.5288,VALID,0,VALID,23.6823,VALID,335,VALID,0.394922,
2009-04-20, 03:10:05,VALID,1001.7,VALID,0,VALID,95.5136,VALID,0,VALID,23.723,VALID,348,VALID,0.462891,
2009-04-20, 03:11:05,VALID,1001.71,VALID,0,VALID,95.5441,VALID,0,VALID,23.7443,VALID,348,VALID,0.492188,
2009-04-20, 03:12:05,VALID,1001.68,VALID,0,VALID,95.4983,VALID,0,VALID,23.7425,VALID,348,VALID,0.265234,
2009-04-20, 03:13:05,VALID,1001.64,VALID,0,VALID,95.5212,VALID,0,VALID,23.7637,VALID,348,VALID,0.228125,
2009-04-20, 03:14:05,VALID,1001.62,VALID,0,VALID,95.5288,VALID,0,VALID,23.7637,VALID,348,VALID,0,
2009-04-20, 03:15:05,VALID,1001.63,VALID,0,VALID,95.506,VALID,0,VALID,23.7425,VALID,348,VALID,0,
2009-04-20, 03:16:05,VALID,1001.58,VALID,0,VALID,95.5288,VALID,0,VALID,23.7248,VALID,348,VALID,0,
2009-04-20, 03:17:05,VALID,1001.57,VALID,0,VALID,95.5136,VALID,0,VALID,23.723,VALID,348,VALID,0,
2009-04-20, 03:18:05,VALID,1001.58,VALID,0,VALID,95.5136,VALID,0,VALID,23.7248,VALID,348,VALID,0,
2009-04-20, 03:19:05,VALID,1001.58,VALID,0,VALID,95.5212,VALID,0,VALID,23.723,VALID,348,VALID,0,
2009-04-20, 03:20:05,VALID,1001.61,VALID,0,VALID,95.5212,VALID,0,VALID,23.723,VALID,348,VALID,0,
2009-04-20, 03:21:05,VALID,1001.61,VALID,0,VALID,95.5288,VALID,0,VALID,23.7637,VALID,348,VALID,0,
2009-04-20, 03:22:05,VALID,1001.62,VALID,0,VALID,95.5212,VALID,0,VALID,23.7619,VALID,346,VALID,0.188672,
2009-04-20, 03:23:05,VALID,1001.61,VALID,0,VALID,95.5212,VALID,0,VALID,23.7814,VALID,346,VALID,0.00234375,
2009-04-20, 03:24:05,VALID,1001.6,VALID,0,VALID,95.5136,VALID,0,VALID,23.7619,VALID,346,VALID,0.191016,
2009-04-20, 03:25:05,VALID,1001.6,VALID,0,VALID,95.5136,VALID,0,VALID,23.8027,VALID,346,VALID,0.272266,
2009-04-20, 03:26:05,VALID,1001.61,VALID,0,VALID,95.5136,VALID,0.100563,VALID,23.7796,VALID,346,VALID,0.161719,
2009-04-20, 03:27:05,VALID,1001.62,VALID,0,VALID,95.5136,VALID,0,VALID,23.7601,VALID,346,VALID,0.146875,
2009-04-20, 03:28:05,VALID,1001.65,VALID,0,VALID,95.5288,VALID,0.100563,VALID,23.7601,VALID,346,VALID,0.00195313,
2009-04-20, 03:29:05,VALID,1001.66,VALID,0,VALID,95.5212,VALID,0,VALID,23.7407,VALID,346,VALID,0.225781,
2009-04-20, 03:30:05,VALID,1001.66,VALID,0,VALID,95.5136,VALID,0,VALID,23.7619,VALID,346,VALID,0.157422,
2009-04-20, 03:31:05,VALID,1001.66,VALID,0,VALID,95.5136,VALID,0,VALID,23.7619,VALID,346,VALID,0.320703,
2009-04-20, 03:32:05,VALID,1001.65,VALID,0,VALID,95.5136,VALID,0,VALID,23.7601,VALID,346,VALID,0.375391,
2009-04-20, 03:33:05,VALID,1001.63,VALID,0,VALID,95.5212,VALID,0,VALID,23.7619,VALID,346,VALID,0.467969,
2009-04-20, 03:34:05,VALID,1001.66,VALID,0,VALID,95.5212,VALID,0,VALID,23.7619,VALID,346,VALID,0.526953,
2009-04-20, 03:35:05,VALID,1001.65,VALID,0,VALID,95.5212,VALID,0,VALID,23.7619,VALID,346,VALID,0.324219,
2009-04-20, 03:36:05,VALID,1001.62,VALID,0,VALID,95.5212,VALID,0,VALID,23.7425,VALID,346,VALID,0.3625,
2009-04-20, 03:37:05,VALID,1001.64,VALID,0,VALID,95.5136,VALID,0,VALID,23.7619,VALID,346,VALID,0.519531,
2009-04-20, 03:38:05,VALID,1001.61,VALID,0,VALID,95.5212,VALID,0.100563,VALID,23.7814,VALID,346,VALID,0.479297,
2009-04-20, 03:39:05,VALID,1001.57,VALID,0,VALID,95.5212,VALID,0,VALID,23.7619,VALID,346,VALID,0.453906,
2009-04-20, 03:40:05,VALID,1001.58,VALID,0,VALID,95.5365,VALID,0,VALID,23.7601,VALID,347,VALID,0.436328,
2009-04-20, 03:41:05,VALID,1001.57,VALID,0,VALID,95.5212,VALID,0,VALID,23.7601,VALID,347,VALID,0.403125,
2009-04-20, 03:42:05,VALID,1001.53,VALID,0,VALID,95.5288,VALID,0,VALID,23.7796,VALID,347,VALID,0.264453,
2009-04-20, 03:43:05,VALID,1001.52,VALID,0,VALID,95.5288,VALID,0,VALID,23.8009,VALID,347,VALID,0.197656,
2009-04-20, 03:44:05,VALID,1001.51,VALID,0,VALID,95.5288,VALID,0.100563,VALID,23.7814,VALID,347,VALID,0.0148437,
2009-04-20, 03:45:05,VALID,1001.51,VALID,0,VALID,95.5365,VALID,0,VALID,23.7796,VALID,347,VALID,0.327344,
2009-04-20, 03:46:05,VALID,1001.56,VALID,0,VALID,95.5365,VALID,0,VALID,23.7796,VALID,347,VALID,0.323438,
2009-04-20, 03:47:05,VALID,1001.54,VALID,0,VALID,95.5212,VALID,0,VALID,23.7796,VALID,347,VALID,0.374609,
2009-04-20, 03:48:05,VALID,1001.56,VALID,0,VALID,95.5365,VALID,0,VALID,23.8009,VALID,347,VALID,0.36875,